Location: ??
(35.5052°N, 139.7262°E)
Time: 00:54:51
(UTC+00:00)

NOAA 16 DEB - Visible Passes

Search period start: 15 August 2022 00:00
Search period end: 25 August 2022 00:00
Orbit: 743 x 825 km, 98.7° (Epoch: 14 August)

Date Brightness Start Highest point End Pass type
(mag) Time Alt. Az. Time Alt. Az. Time Alt. Az.
15 Aug ? 13:16:19 17° NNE 13:16:19 17° NNE 13:17:54 10° NNE visible
15 Aug ? 14:56:55 14° NW 14:56:55 14° NW 14:57:37 10° NNW visible
16 Aug ? 12:44:47 10° NE 12:44:47 10° NE 12:44:59 10° NE visible
16 Aug ? 14:25:23 19° NNW 14:25:23 19° NNW 14:26:45 10° NNW visible
17 Aug ? 13:53:51 20° N 13:53:51 20° N 13:55:26 10° N visible
18 Aug ? 13:22:18 16° NNE 13:22:18 16° NNE 13:23:37 10° NNE visible
18 Aug ? 15:02:55 11° NW 15:02:55 11° NW 15:03:05 10° NW visible
19 Aug ? 12:50:45 11° NE 12:50:45 11° NE 12:50:59 10° NNE visible
19 Aug ? 14:31:21 16° NNW 14:31:21 16° NNW 14:32:17 10° NNW visible
20 Aug ? 13:59:48 17° N 13:59:48 17° N 14:01:01 10° N visible
21 Aug ? 13:28:14 15° NNE 13:28:14 15° NNE 13:29:16 10° N visible
22 Aug ? 12:56:39 10° NNE 12:56:39 10° NNE 12:56:48 10° NNE visible
22 Aug ? 14:37:15 13° NNW 14:37:15 13° NNW 14:37:44 10° NNW visible
23 Aug ? 14:05:40 15° N 14:05:40 15° N 14:06:30 10° N visible
24 Aug ? 13:34:05 14° N 13:34:05 14° N 13:34:49 10° N visible
